Location: Rieti
(42.4000°N, 12.8500°E)
Time: 13:34:53
(UTC+02:00)

ISS - Visible Passes

Search period start: 11 May 2021 00:00
Search period end: 21 May 2021 00:00
Orbit: 417 x 422 km, 51.6° (Epoch: 11 May)

Date Brightness Start Highest point End Pass type
(mag) Time Alt. Az. Time Alt. Az. Time Alt. Az.
11 May -1.0 02:04:21 19° N 02:04:21 19° N 02:06:27 10° NE visible
11 May -0.9 03:39:09 10° NW 03:41:37 18° N 03:44:05 10° NE visible
11 May -2.7 05:15:43 10° NW 05:19:01 49° NNE 05:22:18 10° ESE visible
12 May -0.6 01:18:16 14° NNE 01:18:16 14° NNE 01:19:03 10° NE visible
12 May -0.8 02:51:38 10° NW 02:53:57 17° N 02:56:17 10° NE visible
12 May -2.0 04:28:22 10° NW 04:31:30 34° NNE 04:34:38 10° E visible
13 May -0.8 02:05:02 14° NNW 02:06:18 17° N 02:08:35 10° NE visible
13 May -1.4 03:41:02 10° NW 03:43:56 26° NNE 03:46:50 10° ENE visible
14 May -0.8 01:18:39 18° N 01:18:39 18° N 01:21:00 10° NE visible
14 May -1.1 02:53:39 10° NW 02:56:20 21° NNE 02:59:00 10° ENE visible
14 May -3.6 04:30:10 10° NW 04:33:33 77° NNE 04:36:56 10° ESE visible
14 May -2.3 21:14:45 10° S 21:17:07 18° SE 21:19:30 10° E visible
14 May -3.2 22:50:20 10° WSW 22:53:39 59° NNW 22:55:36 22° NE visible
15 May -1.0 00:28:26 10° WNW 00:30:59 19° N 00:33:31 10° NE visible
15 May -0.9 02:06:13 10° NW 02:08:41 18° N 02:11:10 10° NE visible
15 May -2.8 03:42:47 10° NW 03:46:05 49° NNE 03:49:22 10° ESE visible
15 May -3.9 22:02:51 10° SW 22:06:12 87° SE 22:09:34 10° ENE visible
15 May -1.2 23:40:36 10° WNW 23:43:21 23° NNW 23:46:07 10° NE visible
16 May -0.8 01:18:42 10° NW 01:21:02 17° N 01:23:21 10° NE visible
16 May -2.0 02:55:26 10° NW 02:58:34 34° NNE 03:01:41 10° E visible
16 May -3.3 04:32:14 10° WNW 04:35:23 37° SW 04:38:32 10° SSE visible
16 May -3.6 21:15:32 10° SW 21:18:48 51° SE 21:22:05 10° ENE visible
16 May -1.7 22:52:46 10° W 22:55:45 29° NNW 22:58:45 10° NE visible
17 May -0.7 00:31:04 10° NW 00:33:22 17° N 00:35:39 10° NE visible
17 May -1.5 02:08:05 10° NW 02:10:59 26° NNE 02:13:54 10° ENE visible
17 May -3.9 03:45:03 13° WNW 03:48:02 64° SW 03:51:23 10° SE visible
17 May -2.3 22:05:01 10° W 22:08:12 39° NNW 22:11:24 10° NE visible
17 May -0.8 23:43:20 10° NW 23:45:42 17° N 23:48:03 10° NE visible
18 May -1.1 01:20:43 10° NW 01:22:58 21° N 01:22:58 21° N visible
18 May -3.1 21:17:23 10° WSW 21:20:42 58° NNW 21:24:02 10° NE visible
18 May -0.9 22:55:31 10° WNW 22:58:02 19° N 23:00:34 10° NE visible
19 May -1.0 00:33:17 10° NW 00:35:45 18° N 00:36:33 17° NNE visible
19 May -1.2 22:07:39 10° WNW 22:10:24 23° NNW 22:13:10 10° NE visible
19 May -0.8 23:45:46 10° NW 23:48:05 17° N 23:50:24 10° NE visible
20 May -0.9 01:22:29 10° NW 01:23:19 16° NW 01:23:19 16° NW visible
20 May -1.6 21:19:50 10° W 21:22:49 28° NNW 21:25:48 10° NE visible
20 May -0.8 22:58:08 10° NW 23:00:25 17° N 23:02:42 10° NE visible
